Location: Dammartin
(48.9032°N, 1.6195°E)
Time: 14:10:19
(UTC+00:00)

YUBILEINY - Pass Details

Date: 15 December 2023
Orbit: 1479 x 1508 km, 82.5° (Epoch: 02 March)

Event Time Altitude Azimuth Distance (km) Brightness Sun altitude
Rises 18:59:51 0° 349° (N) 4,624 ? -28.8°
Reaches altitude 10° 19:02:45 10° 351° (N) 3,638 ? -29.3°
Maximum altitude 19:11:31 84° 80° (E) 1,494 ? -30.8°
Drops below altitude 10° 19:20:14 10° 169° (S) 3,610 ? -32.2°
Sets 19:23:05 0° 170° (S) 4,586 ? -32.7°
